This is the latest recevied weather packets stored in our database for station/object KR4ELZ. If no packets are shown the sender has not sent any weather packets the latest 10 day(s).
| Time | Temp. | Humidity | Pressure | Rain* | Wind** | Luminosity | Snow |
|---|---|---|---|---|---|---|---|
| 1777651751 | 18.33° C | 56% | 1016.6 hPa | 0 mm | - | 283 W/m² | - |
| 1777651447 | 17.78° C | 58% | 1016.7 hPa | 0 mm | - | 288 W/m² | - |
| 1777651145 | 17.78° C | 61% | 1016.7 hPa | 0 mm | - | 294 W/m² | - |
| 1777650841 | 17.78° C | 61% | 1016.7 hPa | 0 mm | - | 296 W/m² | - |
| 1777650538 | 17.22° C | 63% | 1016.5 hPa | 0 mm | - | 294 W/m² | - |
| 1777650236 | 16.67° C | 63% | 1016.5 hPa | 0 mm | - | 272 W/m² | - |
| 1777649933 | 17.22° C | 63% | 1016.6 hPa | 0 mm | - | 262 W/m² | - |
| 1777649630 | 16.67° C | 61% | 1016.6 hPa | 0 mm | - | 236 W/m² | - |
| 1777649326 | 16.67° C | 62% | 1016.4 hPa | 0 mm | - | 261 W/m² | - |
| 1777649024 | 17.22° C | 62% | 1016.5 hPa | 0 mm | - | 222 W/m² | - |
| 1777648721 | 17.22° C | 66% | 1016.4 hPa | 0 mm | - | 251 W/m² | - |
| 1777648417 | 16.67° C | 64% | 1016.4 hPa | 0 mm | - | 203 W/m² | - |
| 1777648113 | 16.67° C | 61% | 1016.5 hPa | 0 mm | - | 206 W/m² | - |
| 1777647810 | 16.67° C | 64% | 1016.4 hPa | 0 mm | - | 173 W/m² | - |
| 1777647506 | 16.67° C | 64% | 1016.7 hPa | 0 mm | - | 189 W/m² | - |
| 1777647203 | 16.67° C | 63% | 1016.7 hPa | 0 mm | - | 222 W/m² | - |
| 1777646900 | 16.67° C | 62% | 1016.8 hPa | 0 mm | - | 228 W/m² | - |
| 1777646595 | 16.67° C | 63% | 1016.7 hPa | 0 mm | - | 299 W/m² | - |
| 1777646292 | 16.67° C | 64% | 1016.5 hPa | 0 mm | - | 166 W/m² | - |
| 1777645989 | 16.11° C | 66% | 1016.5 hPa | 0 mm | - | 166 W/m² | - |
| 1777645686 | 16.11° C | 62% | 1016.5 hPa | 0 mm | - | 237 W/m² | - |
| 1777645382 | 16.11° C | 63% | 1016.4 hPa | 0 mm | - | 264 W/m² | - |
| 1777645078 | 16.11° C | 70% | 1016.3 hPa | 0 mm | - | 266 W/m² | - |
| 1777644775 | 15.56° C | 71% | 1016.3 hPa | 0 mm | - | 259 W/m² | - |
| 1777644472 | 15° C | 73% | 1016.4 hPa | 0 mm | - | 178 W/m² | - |
* Rain latest hour (hover to see other rain measurements)
** Current wind speed in m/s (hover to see current wind gust speed)